DW2612 Weather Reports


time (UTC)temp
F
wind
direction
speed
knots
gust
knots
rain 1hr
in
rain 24hr
in
rain mn
in
humidity
%
barometer
mb
20260505010533 71 350 0.0 0.0 0.00 0.00 0.00 66
20260505003535 72 350 0.0 0.0 0.00 0.00 0.00 63
20260505002033 73 350 0.0 0.0 0.00 0.00 0.00 64
20260505000519 73 350 0.0 0.0 0.00 0.00 0.00 63
20260504235035 74 350 0.0 0.0 0.00 0.00 0.00 63
20260504233521 75 318 0.0 0.0 0.00 0.00 0.00 62
20260504232020 75 317 0.0 0.0 0.00 0.00 0.00 60
20260504230524 75 327 0.0 0.0 0.00 0.00 0.00 60
20260504225026 76 313 0.0 0.0 0.00 0.00 0.00 60
20260504223529 77 315 0.0 0.0 0.00 0.00 0.00 56
20260504222047 77 290 0.0 0.0 0.00 0.00 0.00 57
20260504220528 78 256 0.0 0.0 0.00 0.00 0.00 55
20260504215021 79 315 0.0 0.0 0.00 0.00 0.00 55
20260504213521 79 240 0.0 0.0 0.00 0.00 0.00 55
20260504212021 79 321 0.0 0.0 0.00 0.00 0.00 55
20260504210541 79 302 0.0 0.0 0.00 0.00 0.00 53
20260504172025 77 278 0.0 0.0 0.00 0.00 0.00 50
20260504170529 77 318 0.0 0.0 0.00 0.00 0.00 52
20260504150519 72 277 0.0 0.0 0.00 0.00 0.00 63
20260504140529 67 271 0.0 0.0 0.00 0.00 0.00 72
20260504130552 61 306 0.0 0.0 0.00 0.00 0.00 84